This is the latest recevied weather packets stored in our database for station/object I4GOS-3. If no packets are shown the sender has not sent any weather packets the latest 1 day(s).
| Time | Temp. | Humidity | Pressure | Rain* | Wind** | Luminosity | Snow |
|---|---|---|---|---|---|---|---|
| 1777974762 | 17.78° C | 70% | 1014.2 hPa | 0 mm | 7.6 m/s, 137° | - | - |
| 1777974459 | 17.78° C | 71% | 1014.3 hPa | 0 mm | 5.36 m/s, 138° | - | - |
| 1777974158 | 17.78° C | 72% | 1014.2 hPa | 0 mm | 4.02 m/s, 119° | - | - |
| 1777973858 | 17.22° C | 72% | 1014.3 hPa | 0 mm | 4.02 m/s, 139° | - | - |
| 1777973557 | 17.22° C | 72% | 1014.4 hPa | 0 mm | 5.81 m/s, 124° | - | - |
| 1777973257 | 17.22° C | 72% | 1014.5 hPa | 0 mm | 6.26 m/s, 125° | - | - |
| 1777972955 | 17.22° C | 72% | 1014.5 hPa | 0 mm | 3.58 m/s, 112° | - | - |
| 1777972654 | 17.22° C | 72% | 1014.5 hPa | 0 mm | 6.71 m/s, 136° | - | - |
| 1777972354 | 17.22° C | 73% | 1014.4 hPa | 0 mm | 5.36 m/s, 125° | - | - |
| 1777972054 | 16.67° C | 74% | 1014.5 hPa | 1.02 mm | 3.58 m/s, 149° | - | - |
| 1777971754 | 16.67° C | 74% | 1014.4 hPa | 1.02 mm | 6.26 m/s, 135° | - | - |
| 1777971450 | 16.67° C | 74% | 1014.4 hPa | 1.02 mm | 5.81 m/s, 122° | - | - |
| 1777971149 | 16.11° C | 74% | 1014.4 hPa | 1.02 mm | 4.02 m/s, 103° | - | - |
| 1777970849 | 16.11° C | 74% | 1014.5 hPa | 1.27 mm | 1.34 m/s, 109° | - | - |
| 1777970549 | 16.11° C | 74% | 1014.5 hPa | 1.27 mm | 4.92 m/s, 106° | - | - |
| 1777970249 | 16.11° C | 73% | 1014.5 hPa | 1.27 mm | 3.13 m/s, 114° | - | - |
| 1777969947 | 15.56° C | 73% | 1014.6 hPa | 1.78 mm | 0.45 m/s, 110° | - | - |
| 1777969647 | 15.56° C | 72% | 1014.5 hPa | 1.78 mm | 0.89 m/s, 89° | - | - |
| 1777969347 | 15.56° C | 72% | 1014.5 hPa | 1.78 mm | 2.24 m/s, 89° | - | - |
| 1777969047 | 15° C | 72% | 1014.5 hPa | 2.03 mm | 3.13 m/s, 114° | - | - |
| 1777968746 | 15° C | 71% | 1014.6 hPa | 2.03 mm | 3.58 m/s, 125° | - | - |
| 1777968446 | 15° C | 71% | 1014.6 hPa | 1.78 mm | 2.24 m/s, 131° | - | - |
| 1777968142 | 15° C | 72% | 1014.6 hPa | 1.78 mm | 1.34 m/s, 115° | - | - |
| 1777967838 | 15° C | 72% | 1014.7 hPa | 2.29 mm | 0.89 m/s, 106° | - | - |
| 1777967529 | 15° C | 73% | 1014.7 hPa | 2.29 mm | 1.79 m/s, 120° | - | - |
* Rain latest hour (hover to see other rain measurements)
** Current wind speed in m/s (hover to see current wind gust speed)